Location: Unspecified
(22.6800°N, 112.2000°E)
Time: 18:16:20
(UTC+08:00)

ISS - Visible Passes

Search period start: 19 June 2021 00:00
Search period end: 29 June 2021 00:00
Orbit: 417 x 422 km, 51.6° (Epoch: 18 June)

Date Brightness Start Highest point End Pass type
(mag) Time Alt. Az. Time Alt. Az. Time Alt. Az.
20 Jun -0.7 04:42:56 10° SE 04:43:03 10° ESE 04:43:11 10° ESE visible
22 Jun -2.9 04:42:34 18° SSW 04:44:42 44° SE 04:47:55 10° NE visible
23 Jun -1.7 03:57:20 21° SE 03:57:21 21° SE 03:59:58 10° ENE visible
24 Jun -2.8 04:45:01 23° W 04:46:32 35° NW 04:49:39 10° NNE visible
25 Jun -3.3 03:59:38 58° NNE 03:59:38 58° NNE 04:02:26 10° NE visible
26 Jun -0.7 03:14:10 15° ENE 03:14:10 15° ENE 03:14:53 10° NE visible
26 Jun -1.1 04:48:15 10° NW 04:48:36 10° NW 04:48:57 10° NW visible
27 Jun -1.5 04:01:36 17° NNW 04:01:36 17° NNW 04:03:25 10° N visible
28 Jun -0.6 03:16:00 14° NNE 03:16:00 14° NNE 03:16:35 10° NNE visible
